Погода в Цугнях

Россия / Республика Дагестан     42°06′28″N   47°24′12″E
темп.,
°C
ветер,
м/с
пор.,
м/с
влажн.,
%
обл.,
%
осадки,
мм/ч
давл.,
гПа
погр.,
м
25 июня, сб
сб2500:00+11ююз338256 0.0 101133
03:00+9юз447893 0.0 101240
06:00+13юз337840 0.0 101162
09:00+18всв23595 0.0 1009887
12:00+18св427424 1.3 1009419
15:00+18всв3374100 4.1 1008392
18:00+15всв2295100 1.1 1010131
21:00+11сз1193100 1.5 101243
26 июня, вс
вс2600:00+11юз3380100 0.8 101235
03:00+11ююз2279100 0.8 101114
06:00+14ю2277100 0.0 101039
09:00+16всв1174100 0.3 1009335
12:00+18всв4573100 1.3 1008911
15:00+16всв3383100 3.7 1008342
18:00+14св2195100 2.2 1009165
21:00+13з3390100 4.9 101143
27 июня, пн
пн2700:00+11юз2282100 0.1 101216
03:00+10юз32780 0.1 101217
06:00+14юз22750 0.0 101241
09:00+18ссв21640 0.0 1010584
12:00+19св326930 0.3 10111063
15:00+18св338062 2.0 1011678
18:00+14сз229797 1.3 1013196
21:00+13з3493100 1.8 101468
28 июня, вт
вт2800:00+12зюз3386100 0.0 101336
03:00+11зюз338592 0.0 101228
06:00+13зюз23780 0.0 101168
09:00+18ссв31670 0.0 1010592
12:00+19св427220 0.6 1009900
15:00+18св327547 2.3 1010824
18:00+14ссз128643 1.8 1013273
21:00+11з229315 2.8 101516
29 июня, ср
ср2900:00+10з229448 1.3 101531
03:00+10ююз119138 1.4 101511
06:00+11зсз009022 0.0 1015120
09:00+14св217897 0.1 1014705
12:00+15всв327570 0.5 1015810
15:00+14св2272100 0.9 1015743
18:00+13всв227850 0.1 1015523
21:00+9ююв119111 0.1 101710